Weather History for Pottstown, PA

Change the Weather History Date:

Thursday, November 14, 2013

  Actual Average (KRDG) Record (KRDG)
Temperature  
Mean Temperature 40 °F 45 °F  
Max Temperature 53 °F 54 °F 74 °F (1955)
Min Temperature 26 °F 35 °F 16 °F (1986)
Degree Days  
Heating Degree Days 26 20  
Month to date heating degree days 254  
Since 1 July heating degree days 692  
Cooling Degree Days 0 0  
Month to date cooling degree days 0  
Year to date cooling degree days 896  
Moisture  
Dew Point 17 °F    
Average Humidity 46    
Maximum Humidity 75    
Minimum Humidity 17    
Precipitation  
Precipitation 0.00 in 0.09 in 1.32 in (1972)
Month to date precipitation 1.50  
Year to date precipitation 38.02  
Sea Level Pressure  
Sea Level Pressure 30.27 in    
Wind  
Wind Speed 4 mph (WSW)    
Max Wind Speed 10 mph    
Max Gust Speed 17 mph    
Visibility 10 miles    
Events      
T = Trace of Precipitation, MM = Missing Value Source: NWS Daily Summary

Daily Weather History Graph

Daily Weather History Graph

Search for Another Location

Airport:

Trip Planner

Search our weather history database for the weather conditions in past years. The results will help you decide how hot, cold, wet, or windy it might be!

Date:

Astronomy

Nov. 14, 2013 Rise Set
Actual Time 6:47 AM EST 4:45 PM EST
Civil Twilight 6:17 AM EST 5:15 PM EST
Nautical Twilight 5:45 AM EST 5:47 PM EST
Astronomical Twilight 5:12 AM EST 6:19 PM EST
Moon 3:06 PM EST (11/14) 3:39 AM EST (11/14)
Length of Visible Light 10h 57m
Length of Day
9h 58m
Waxing Gibbous, 91% of the Moon is Illuminated
Nov 14
Waxing Gibbous
Nov 17
Full
Nov 25
Last Quarter
Dec 2
New
Dec 9
First Quarter

Hourly Weather History & Observations

Time (EST) Temp. Windchill Dew Point Humidity Pressure Visibility Wind Dir Wind Speed Gust Speed Precip Events Conditions
12:54 AM 27.0 °F - 19.0 °F 72% 30.31 in 10.0 mi Calm Calm - N/A   Clear
1:54 AM 30.0 °F 25.2 °F 19.0 °F 64% 30.30 in 10.0 mi SW 4.6 mph - N/A   Clear
2:54 AM 30.0 °F 24.1 °F 18.0 °F 61% 30.29 in 10.0 mi SSW 5.8 mph - N/A   Clear
3:54 AM 30.9 °F 25.2 °F 18.0 °F 59% 30.29 in 10.0 mi WSW 5.8 mph - N/A   Clear
4:54 AM 28.9 °F - 18.0 °F 64% 30.29 in 10.0 mi Calm Calm - N/A   Clear
5:54 AM 27.0 °F - 19.0 °F 72% 30.30 in 10.0 mi Calm Calm - N/A   Clear
6:54 AM 26.1 °F - 19.0 °F 75% 30.30 in 10.0 mi Calm Calm - N/A   Clear
7:54 AM 32.0 °F 27.5 °F 19.0 °F 59% 30.31 in 10.0 mi Variable 4.6 mph - N/A   Clear
8:54 AM 37.0 °F 33.3 °F 19.9 °F 50% 30.31 in 10.0 mi Variable 4.6 mph - N/A   Clear
9:54 AM 42.1 °F 36.1 °F 12.9 °F 31% 30.32 in 10.0 mi WSW 10.4 mph - N/A   Clear
10:54 AM 46.0 °F 41.0 °F 12.9 °F 26% 30.30 in 10.0 mi West 10.4 mph 17.3 mph N/A   Clear
11:54 AM 48.0 °F - 12.9 °F 24% 30.27 in 10.0 mi WSW 10.4 mph - N/A   Clear
12:54 PM 51.1 °F - 10.9 °F 20% 30.25 in 10.0 mi WSW 10.4 mph 17.3 mph N/A   Clear
1:54 PM 53.1 °F - 9.0 °F 17% 30.23 in 10.0 mi WSW 10.4 mph - N/A   Clear
2:54 PM 53.1 °F - 10.0 °F 18% 30.22 in 10.0 mi West 9.2 mph - N/A   Clear
3:54 PM 52.0 °F - 10.9 °F 19% 30.22 in 10.0 mi WSW 5.8 mph - N/A   Clear
4:54 PM 50.0 °F - 10.9 °F 21% 30.22 in 10.0 mi WSW 5.8 mph - N/A   Clear
5:54 PM 45.0 °F - 12.9 °F 27% 30.24 in 10.0 mi Calm Calm - N/A   Clear
6:54 PM 42.1 °F - 17.1 °F 37% 30.24 in 10.0 mi Calm Calm - N/A   Clear
7:54 PM 43.0 °F 40.3 °F 21.0 °F 42% 30.24 in 10.0 mi SSW 4.6 mph - N/A   Clear
8:54 PM 41.0 °F - 23.0 °F 49% 30.23 in 10.0 mi Calm Calm - N/A   Clear
9:54 PM 34.0 °F - 23.0 °F 64% 30.23 in 10.0 mi Calm Calm - N/A   Clear
10:54 PM 32.0 °F - 23.0 °F 69% 30.23 in 9.0 mi Calm Calm - N/A   Clear
11:54 PM 32.0 °F - 24.1 °F 73% 30.23 in 10.0 mi Calm Calm - N/A   Clear